EJU54YE EBBR-LIRF

Flight info

Callsign EJU54YE
Flight time 1h 39m
Altitude 37000
Route ROUSY DCT GTQ DCT DEVDI DCT ODINA DCT EKPAL DCT TINKU DCT XIBIL
Aircraft A319/M-SDE3FGHIRWY/LB1

Departure

Time 2026-05-05 08:42
Airport Brussels Airport (EBBR)

Arrival

Time 2026-05-05 10:22
Airport Rome–Fiumicino Leonardo da Vinci International Airport (LIRF)
Time Latitude Longitude Altitude Speed Heading
2026-05-05 08:07 50.90215 4.47886 185 ft 0 kts 155°
2026-05-05 08:30 50.90217 4.47885 185 ft 1 kts 155°
2026-05-05 08:30 50.90233 4.47874 198 ft 3 kts 157°
2026-05-05 08:30 50.90251 4.47861 189 ft 3 kts 155°
2026-05-05 08:31 50.90269 4.47847 195 ft 3 kts 148°
2026-05-05 08:31 50.90287 4.47830 192 ft 3 kts 147°
2026-05-05 08:31 50.90296 4.47820 199 ft 0 kts 144°
2026-05-05 08:36 50.90295 4.47823 199 ft 0 kts 129°
2026-05-05 08:36 50.90295 4.47839 198 ft 3 kts 94°
2026-05-05 08:36 50.90305 4.47887 185 ft 5 kts 65°
2026-05-05 08:36 50.90322 4.47943 185 ft 6 kts 65°
2026-05-05 08:37 50.90340 4.48005 196 ft 7 kts 65°
2026-05-05 08:37 50.90377 4.48039 185 ft 7 kts 359°
2026-05-05 08:37 50.90424 4.48046 185 ft 7 kts 32°
2026-05-05 08:37 50.90450 4.48113 188 ft 7 kts 64°
2026-05-05 08:38 50.90473 4.48191 189 ft 8 kts 65°
2026-05-05 08:38 50.90497 4.48277 199 ft 9 kts 65°
2026-05-05 08:38 50.90525 4.48373 187 ft 10 kts 65°
2026-05-05 08:38 50.90555 4.48476 194 ft 11 kts 65°
2026-05-05 08:39 50.90588 4.48590 188 ft 12 kts 65°
2026-05-05 08:39 50.90623 4.48715 184 ft 13 kts 65°
2026-05-05 08:39 50.90661 4.48846 188 ft 13 kts 65°
2026-05-05 08:39 50.90702 4.48985 192 ft 14 kts 65°
2026-05-05 08:40 50.90743 4.49128 184 ft 15 kts 65°
2026-05-05 08:40 50.90786 4.49277 197 ft 15 kts 65°
2026-05-05 08:40 50.90831 4.49432 189 ft 16 kts 65°
2026-05-05 08:40 50.90877 4.49592 193 ft 16 kts 65°
2026-05-05 08:41 50.90925 4.49758 193 ft 17 kts 65°
2026-05-05 08:41 50.91002 4.49882 195 ft 16 kts 33°
2026-05-05 08:41 50.91105 4.49949 182 ft 14 kts
2026-05-05 08:41 50.91140 4.49880 182 ft 8 kts 251°
2026-05-05 08:42 50.91084 4.49686 199 ft 50 kts 245°
2026-05-05 08:42 50.90830 4.48805 190 ft 123 kts 245°
2026-05-05 08:42 50.90399 4.47306 300 ft 164 kts 249°
2026-05-05 08:42 50.89930 4.45667 949 ft 163 kts 248°
2026-05-05 08:43 50.89483 4.43975 1459 ft 177 kts 251°
2026-05-05 08:43 50.88970 4.42049 1826 ft 202 kts 245°
2026-05-05 08:43 50.87909 4.40390 2113 ft 233 kts 202°
2026-05-05 08:43 50.86254 4.40158 2427 ft 250 kts 164°
2026-05-05 08:44 50.84788 4.41669 3000 ft 259 kts 126°
2026-05-05 08:44 50.83903 4.44135 3962 ft 260 kts 111°
2026-05-05 08:44 50.83227 4.46797 4953 ft 262 kts 109°
2026-05-05 08:44 50.82527 4.49475 5912 ft 267 kts 113°
2026-05-05 08:45 50.81545 4.52011 6815 ft 273 kts 123°
2026-05-05 08:45 50.80395 4.54399 7729 ft 277 kts 127°
2026-05-05 08:45 50.79144 4.56750 8647 ft 281 kts 129°
2026-05-05 08:45 50.77854 4.59067 9564 ft 285 kts 129°
2026-05-05 08:46 50.76517 4.61435 10237 ft 297 kts 129°
2026-05-05 08:46 50.75075 4.63998 10542 ft 321 kts 129°
2026-05-05 08:46 50.73571 4.66682 11105 ft 332 kts 129°
2026-05-05 08:46 50.72036 4.69424 11851 ft 337 kts 130°
2026-05-05 08:47 50.70496 4.72248 12639 ft 341 kts 125°
2026-05-05 08:47 50.69257 4.75446 13392 ft 343 kts 114°
2026-05-05 08:47 50.68457 4.79003 14101 ft 345 kts 104°
2026-05-05 08:47 50.67811 4.82671 14793 ft 349 kts 105°
2026-05-05 08:48 50.67147 4.86375 15461 ft 352 kts 106°
2026-05-05 08:48 50.66256 4.89995 16112 ft 356 kts 117°
2026-05-05 08:48 50.64904 4.93289 16780 ft 360 kts 129°
2026-05-05 08:48 50.63187 4.96142 17444 ft 363 kts 136°
2026-05-05 08:49 50.61375 4.98937 18119 ft 366 kts 136°
2026-05-05 08:49 50.59549 5.01760 18697 ft 370 kts 136°
2026-05-05 08:49 50.57708 5.04608 19269 ft 373 kts 136°
2026-05-05 08:49 50.55850 5.07479 19848 ft 376 kts 136°
2026-05-05 08:50 50.53975 5.10375 20428 ft 379 kts 136°
2026-05-05 08:50 50.52095 5.13278 20999 ft 382 kts 136°
2026-05-05 08:50 50.50182 5.16233 21574 ft 385 kts 136°
2026-05-05 08:50 50.48261 5.19196 22140 ft 389 kts 136°
2026-05-05 08:51 50.46319 5.22186 22710 ft 392 kts 136°
2026-05-05 08:51 50.44361 5.25192 23263 ft 395 kts 136°
2026-05-05 08:51 50.42387 5.28219 23740 ft 398 kts 136°
2026-05-05 08:51 50.40404 5.31258 24187 ft 401 kts 137°
2026-05-05 08:52 50.38400 5.34326 24631 ft 403 kts 137°
2026-05-05 08:52 50.36386 5.37403 25078 ft 405 kts 137°
2026-05-05 08:52 50.34361 5.40489 25518 ft 407 kts 137°
2026-05-05 08:52 50.32329 5.43585 25953 ft 409 kts 138°
2026-05-05 08:53 50.30280 5.46701 26387 ft 411 kts 138°
2026-05-05 08:53 50.28226 5.49826 26822 ft 413 kts 138°
2026-05-05 08:53 50.26858 5.51901 27106 ft 415 kts 138°
2026-05-05 08:53 50.24777 5.55051 27555 ft 417 kts 139°
2026-05-05 08:54 50.22692 5.58206 27980 ft 419 kts 139°
2026-05-05 08:54 50.20589 5.61387 28390 ft 422 kts 139°
2026-05-05 08:54 50.18477 5.64578 28797 ft 424 kts 139°
2026-05-05 08:54 50.16356 5.67778 29179 ft 426 kts 139°
2026-05-05 08:55 50.14215 5.71003 29553 ft 429 kts 139°
2026-05-05 08:55 50.12062 5.74243 29911 ft 431 kts 139°
2026-05-05 08:55 50.09868 5.77439 30213 ft 432 kts 143°
2026-05-05 08:55 50.07425 5.80145 30508 ft 430 kts 153°
2026-05-05 08:56 50.04750 5.82204 30829 ft 428 kts 161°
2026-05-05 08:56 50.01932 5.83713 31167 ft 428 kts 165°
2026-05-05 08:56 49.99110 5.85166 31507 ft 429 kts 165°
2026-05-05 08:56 49.96352 5.86592 31841 ft 428 kts 165°
2026-05-05 08:57 49.93536 5.88051 32338 ft 425 kts 165°
2026-05-05 08:57 49.90741 5.89496 32847 ft 421 kts 166°
2026-05-05 08:57 49.87979 5.90927 33381 ft 418 kts 166°
2026-05-05 08:57 49.85231 5.92348 33911 ft 414 kts 166°
2026-05-05 08:58 49.82506 5.93753 34316 ft 412 kts 166°
2026-05-05 08:58 49.79799 5.95143 34638 ft 412 kts 166°
2026-05-05 08:58 49.77057 5.96546 34933 ft 413 kts 166°
2026-05-05 08:58 49.74329 5.97937 35205 ft 414 kts 166°
2026-05-05 08:59 49.71591 5.99330 35468 ft 415 kts 166°
2026-05-05 08:59 49.68845 6.00728 35729 ft 415 kts 166°
2026-05-05 08:59 49.66093 6.02128 35980 ft 416 kts 166°
2026-05-05 08:59 49.63339 6.03526 36229 ft 417 kts 165°
2026-05-05 09:00 49.60580 6.04928 36476 ft 418 kts 165°
2026-05-05 09:00 49.57820 6.06337 36696 ft 418 kts 165°
2026-05-05 09:00 49.55047 6.07751 36841 ft 419 kts 165°
2026-05-05 09:01 49.49524 6.10610 36868 ft 419 kts 161°
2026-05-05 09:01 49.44531 6.15331 36870 ft 427 kts 144°
2026-05-05 09:02 49.39918 6.21088 36870 ft 427 kts 145°
2026-05-05 09:02 49.35324 6.26768 36873 ft 427 kts 145°
2026-05-05 09:03 49.30670 6.32503 36872 ft 427 kts 145°
2026-05-05 09:03 49.26070 6.38156 36874 ft 427 kts 145°
2026-05-05 09:04 49.21439 6.43841 36876 ft 427 kts 145°
2026-05-05 09:04 49.16797 6.49521 36881 ft 427 kts 145°
2026-05-05 09:05 49.12163 6.55196 36886 ft 427 kts 145°
2026-05-05 09:05 49.07522 6.60855 36884 ft 427 kts 145°
2026-05-05 09:06 49.02874 6.66499 36875 ft 426 kts 145°
2026-05-05 09:06 48.98120 6.71848 36872 ft 422 kts 154°
2026-05-05 09:07 48.92824 6.75599 36882 ft 420 kts 159°
2026-05-05 09:07 48.87488 6.79228 36871 ft 420 kts 159°
2026-05-05 09:08 48.82150 6.82874 36880 ft 420 kts 159°
2026-05-05 09:08 48.76806 6.86502 36892 ft 421 kts 159°
2026-05-05 09:09 48.71454 6.90109 36886 ft 421 kts 159°
2026-05-05 09:09 48.66102 6.93735 36884 ft 421 kts 159°
2026-05-05 09:10 48.60751 6.97355 36896 ft 422 kts 159°
2026-05-05 09:10 48.55389 7.00962 36894 ft 422 kts 159°
2026-05-05 09:11 48.50008 7.04573 36897 ft 422 kts 159°
2026-05-05 09:11 48.44665 7.08156 36899 ft 423 kts 159°
2026-05-05 09:12 48.39285 7.11743 36902 ft 423 kts 159°
2026-05-05 09:12 48.33910 7.15323 36903 ft 423 kts 159°
2026-05-05 09:13 48.28526 7.18901 36898 ft 422 kts 159°
2026-05-05 09:13 48.23149 7.22468 36904 ft 423 kts 159°
2026-05-05 09:14 48.17767 7.26035 36905 ft 423 kts 159°
2026-05-05 09:14 48.12392 7.29587 36901 ft 422 kts 159°
2026-05-05 09:15 48.07023 7.33133 36902 ft 421 kts 159°
2026-05-05 09:15 48.01657 7.36660 36899 ft 421 kts 159°
2026-05-05 09:16 47.96289 7.40182 36900 ft 421 kts 159°
2026-05-05 09:16 47.90930 7.43687 36900 ft 421 kts 159°
2026-05-05 09:17 47.85571 7.47178 36898 ft 420 kts 159°
2026-05-05 09:17 47.80211 7.50662 36900 ft 420 kts 159°
2026-05-05 09:18 47.74855 7.54143 36898 ft 420 kts 159°
2026-05-05 09:18 47.69521 7.57735 36896 ft 421 kts 158°
2026-05-05 09:19 47.64234 7.61521 36895 ft 422 kts 157°
2026-05-05 09:19 47.58950 7.65311 36893 ft 422 kts 157°
2026-05-05 09:20 47.53649 7.69048 36888 ft 422 kts 158°
2026-05-05 09:20 47.48334 7.72754 36889 ft 422 kts 158°
2026-05-05 09:21 47.43018 7.76463 36888 ft 422 kts 158°
2026-05-05 09:21 47.37702 7.80170 36888 ft 422 kts 158°
2026-05-05 09:22 47.32380 7.83869 36893 ft 423 kts 158°
2026-05-05 09:22 47.27052 7.87562 36892 ft 423 kts 158°
2026-05-05 09:23 47.21720 7.91260 36896 ft 424 kts 158°
2026-05-05 09:23 47.16386 7.94947 36889 ft 424 kts 158°
2026-05-05 09:24 47.11049 7.98625 36882 ft 424 kts 158°
2026-05-05 09:24 47.05695 8.02302 36889 ft 424 kts 158°
2026-05-05 09:25 47.00343 8.05971 36899 ft 425 kts 158°
2026-05-05 09:25 46.95007 8.09632 36903 ft 425 kts 158°
2026-05-05 09:26 46.89644 8.13297 36901 ft 426 kts 159°
2026-05-05 09:26 46.84267 8.16956 36874 ft 426 kts 159°
2026-05-05 09:27 46.78889 8.20621 36871 ft 427 kts 159°
2026-05-05 09:27 46.73493 8.24290 36874 ft 428 kts 159°
2026-05-05 09:28 46.68096 8.27937 36887 ft 428 kts 159°
2026-05-05 09:28 46.62694 8.31592 36904 ft 428 kts 159°
2026-05-05 09:29 46.57289 8.35244 36931 ft 428 kts 159°
2026-05-05 09:29 46.51878 8.38878 36957 ft 428 kts 159°
2026-05-05 09:30 46.46460 8.42513 36996 ft 429 kts 159°
2026-05-05 09:30 46.41040 8.46138 37010 ft 429 kts 159°
2026-05-05 09:31 46.35619 8.49762 37017 ft 429 kts 159°
2026-05-05 09:31 46.30188 8.53382 37027 ft 430 kts 159°
2026-05-05 09:32 46.24759 8.57000 37017 ft 430 kts 159°
2026-05-05 09:32 46.19326 8.60622 37012 ft 430 kts 160°
2026-05-05 09:33 46.13881 8.64218 37010 ft 430 kts 160°
2026-05-05 09:33 46.09431 8.67447 37013 ft 435 kts 151°
2026-05-05 09:34 46.04376 8.72285 37015 ft 436 kts 151°
2026-05-05 09:34 45.99311 8.77125 37020 ft 437 kts 151°
2026-05-05 09:35 45.94237 8.81946 37021 ft 437 kts 151°
2026-05-05 09:35 45.86624 8.89164 37020 ft 437 kts 152°
2026-05-05 09:36 45.81544 8.93970 37014 ft 438 kts 152°
2026-05-05 09:36 45.76458 8.98768 37014 ft 438 kts 152°
2026-05-05 09:37 45.71365 9.03556 37013 ft 438 kts 152°
2026-05-05 09:37 45.66269 9.08349 36997 ft 438 kts 152°
2026-05-05 09:38 45.61185 9.13132 36993 ft 438 kts 152°
2026-05-05 09:38 45.56090 9.17901 36991 ft 438 kts 152°
2026-05-05 09:39 45.50990 9.22652 36990 ft 438 kts 152°
2026-05-05 09:39 45.45887 9.27398 36986 ft 438 kts 152°
2026-05-05 09:40 45.40783 9.32142 36985 ft 438 kts 152°
2026-05-05 09:40 45.35671 9.36882 36982 ft 439 kts 152°
2026-05-05 09:41 45.30550 9.41624 36980 ft 439 kts 152°
2026-05-05 09:41 45.25421 9.46358 36975 ft 440 kts 152°
2026-05-05 09:42 45.20279 9.51090 36982 ft 440 kts 152°
2026-05-05 09:42 45.15169 9.55792 36964 ft 441 kts 152°
2026-05-05 09:43 45.10017 9.60524 36960 ft 441 kts 152°
2026-05-05 09:43 45.04828 9.65279 36952 ft 442 kts 153°
2026-05-05 09:44 44.99692 9.69962 36950 ft 442 kts 153°
2026-05-05 09:44 44.94485 9.74704 36947 ft 443 kts 153°
2026-05-05 09:45 44.89300 9.79431 36950 ft 444 kts 153°
2026-05-05 09:45 44.84143 9.84109 36952 ft 444 kts 153°
2026-05-05 09:46 44.78900 9.88853 36961 ft 445 kts 153°
2026-05-05 09:46 44.73686 9.93569 36965 ft 446 kts 153°
2026-05-05 09:47 44.68466 9.98275 36971 ft 446 kts 153°
2026-05-05 09:47 44.63235 10.02974 36970 ft 446 kts 153°
2026-05-05 09:48 44.57996 10.07664 36972 ft 447 kts 153°
2026-05-05 09:48 44.52758 10.12363 36969 ft 447 kts 153°
2026-05-05 09:49 44.47417 10.16756 36966 ft 441 kts 162°
2026-05-05 09:49 44.41708 10.19808 36971 ft 439 kts 165°
2026-05-05 09:50 44.35984 10.22829 36969 ft 441 kts 165°
2026-05-05 09:50 44.30247 10.25861 36968 ft 441 kts 165°
2026-05-05 09:51 44.24501 10.28894 36962 ft 442 kts 165°
2026-05-05 09:51 44.18746 10.31926 36962 ft 442 kts 165°
2026-05-05 09:52 44.13017 10.34935 36962 ft 443 kts 165°
2026-05-05 09:52 44.07239 10.37960 36965 ft 444 kts 165°
2026-05-05 09:53 44.01447 10.40990 36972 ft 445 kts 165°
2026-05-05 09:53 43.95650 10.44024 36982 ft 445 kts 165°
2026-05-05 09:54 43.89847 10.47058 36995 ft 446 kts 165°
2026-05-05 09:54 43.84040 10.50073 36992 ft 446 kts 165°
2026-05-05 09:55 43.78229 10.53077 36992 ft 446 kts 165°
2026-05-05 09:55 43.72407 10.55996 36983 ft 444 kts 166°
2026-05-05 09:56 43.66546 10.58699 36983 ft 444 kts 168°
2026-05-05 09:56 43.60674 10.61345 36990 ft 445 kts 168°
2026-05-05 09:57 43.54791 10.64045 36988 ft 445 kts 167°
2026-05-05 09:57 43.48919 10.66771 36992 ft 445 kts 167°
2026-05-05 09:58 43.43046 10.69495 36997 ft 445 kts 167°
2026-05-05 09:58 43.37169 10.72210 37004 ft 445 kts 167°
2026-05-05 09:59 43.31296 10.74909 37005 ft 445 kts 168°
2026-05-05 09:59 43.25448 10.77595 36853 ft 446 kts 168°
2026-05-05 10:00 43.22493 10.78950 36592 ft 446 kts 168°
2026-05-05 10:00 43.19564 10.80290 36325 ft 446 kts 168°
2026-05-05 10:00 43.16584 10.81651 36063 ft 446 kts 168°
2026-05-05 10:00 43.13667 10.82981 35350 ft 449 kts 168°
2026-05-05 10:01 43.10658 10.84350 34479 ft 454 kts 168°
2026-05-05 10:01 43.07675 10.85707 33551 ft 458 kts 168°
2026-05-05 10:01 43.04636 10.87088 32567 ft 462 kts 168°
2026-05-05 10:01 43.01569 10.88475 31516 ft 466 kts 167°
2026-05-05 10:02 42.98474 10.89877 30462 ft 471 kts 167°
2026-05-05 10:02 42.95365 10.91296 29685 ft 468 kts 167°
2026-05-05 10:02 42.92295 10.92705 29038 ft 460 kts 167°
2026-05-05 10:02 42.89297 10.94077 28367 ft 454 kts 167°
2026-05-05 10:03 42.86324 10.95429 27708 ft 448 kts 167°
2026-05-05 10:03 42.83396 10.96811 27191 ft 443 kts 162°
2026-05-05 10:03 42.80721 10.98808 27047 ft 436 kts 149°
2026-05-05 10:03 42.78455 11.01503 26857 ft 431 kts 136°
2026-05-05 10:04 42.76656 11.04777 26423 ft 431 kts 127°
2026-05-05 10:04 42.75034 11.08206 25924 ft 428 kts 126°
2026-05-05 10:04 42.73441 11.11606 25439 ft 424 kts 126°
2026-05-05 10:04 42.71871 11.14964 24756 ft 418 kts 126°
2026-05-05 10:05 42.70317 11.18277 24048 ft 413 kts 126°
2026-05-05 10:05 42.68777 11.21545 23318 ft 408 kts 126°
2026-05-05 10:05 42.67255 11.24764 22528 ft 403 kts 126°
2026-05-05 10:05 42.65746 11.27941 21822 ft 396 kts 127°
2026-05-05 10:06 42.64264 11.31057 21248 ft 390 kts 127°
2026-05-05 10:06 42.62813 11.34103 20712 ft 388 kts 127°
2026-05-05 10:06 42.61346 11.37176 20137 ft 385 kts 127°
2026-05-05 10:06 42.59903 11.40203 19602 ft 379 kts 127°
2026-05-05 10:07 42.58475 11.43198 19061 ft 376 kts 127°
2026-05-05 10:07 42.57060 11.46165 18535 ft 372 kts 127°
2026-05-05 10:07 42.55659 11.49098 17952 ft 369 kts 127°
2026-05-05 10:07 42.54167 11.51908 17431 ft 364 kts 135°
2026-05-05 10:08 42.52374 11.54296 16913 ft 360 kts 141°
2026-05-05 10:08 42.50551 11.56627 16407 ft 360 kts 141°
2026-05-05 10:08 42.48742 11.58957 16006 ft 357 kts 140°
2026-05-05 10:08 42.46938 11.61285 15551 ft 354 kts 140°
2026-05-05 10:09 42.45169 11.63571 14912 ft 349 kts 140°
2026-05-05 10:09 42.43418 11.65827 14377 ft 345 kts 141°
2026-05-05 10:09 42.41701 11.68033 13883 ft 342 kts 141°
2026-05-05 10:09 42.39981 11.70239 13376 ft 339 kts 141°
2026-05-05 10:10 42.38263 11.72439 12889 ft 337 kts 141°
2026-05-05 10:10 42.36576 11.74596 12415 ft 337 kts 141°
2026-05-05 10:10 42.34870 11.76777 11937 ft 335 kts 141°
2026-05-05 10:10 42.33178 11.78937 11478 ft 334 kts 141°
2026-05-05 10:11 42.31496 11.81083 11075 ft 331 kts 141°
2026-05-05 10:11 42.29823 11.83219 10708 ft 327 kts 141°
2026-05-05 10:11 42.28183 11.85311 10336 ft 320 kts 141°
2026-05-05 10:11 42.26599 11.87337 9981 ft 308 kts 141°
2026-05-05 10:12 42.25070 11.89294 9595 ft 299 kts 141°
2026-05-05 10:12 42.23567 11.91209 9195 ft 296 kts 141°
2026-05-05 10:12 42.22069 11.93112 8812 ft 294 kts 141°
2026-05-05 10:12 42.20604 11.94973 8438 ft 293 kts 141°
2026-05-05 10:13 42.19115 11.96862 8055 ft 296 kts 140°
2026-05-05 10:13 42.17613 11.98762 7688 ft 296 kts 140°
2026-05-05 10:13 42.16118 12.00659 7321 ft 295 kts 140°
2026-05-05 10:13 42.14626 12.02553 6955 ft 293 kts 141°
2026-05-05 10:14 42.13169 12.04401 6573 ft 281 kts 141°
2026-05-05 10:14 42.11777 12.06169 6198 ft 269 kts 141°
2026-05-05 10:14 42.10440 12.07861 5817 ft 258 kts 141°
2026-05-05 10:14 42.09243 12.09373 5461 ft 249 kts 141°
2026-05-05 10:15 42.08400 12.10437 5216 ft 243 kts 141°
2026-05-05 10:15 42.07201 12.11952 4855 ft 236 kts 141°
2026-05-05 10:15 42.06017 12.13444 4473 ft 230 kts 141°
2026-05-05 10:15 42.04861 12.14900 4090 ft 225 kts 141°
2026-05-05 10:16 42.03729 12.16325 3716 ft 220 kts 141°
2026-05-05 10:16 42.02621 12.17721 3347 ft 216 kts 141°
2026-05-05 10:16 42.01481 12.18978 2956 ft 208 kts 156°
2026-05-05 10:16 42.00154 12.19619 2671 ft 197 kts 165°
2026-05-05 10:17 41.98924 12.20135 2542 ft 172 kts 165°
2026-05-05 10:17 41.97843 12.20590 2510 ft 156 kts 166°
2026-05-05 10:17 41.96861 12.21002 2459 ft 139 kts 166°
2026-05-05 10:17 41.95973 12.21375 2345 ft 129 kts 165°
2026-05-05 10:18 41.95134 12.21727 2194 ft 124 kts 165°
2026-05-05 10:18 41.94316 12.22073 2047 ft 122 kts 164°
2026-05-05 10:18 41.93514 12.22411 1916 ft 120 kts 165°
2026-05-05 10:18 41.92722 12.22747 1747 ft 118 kts 165°
2026-05-05 10:19 41.91935 12.23077 1586 ft 118 kts 165°
2026-05-05 10:19 41.91149 12.23404 1436 ft 118 kts 165°
2026-05-05 10:19 41.90358 12.23734 1223 ft 122 kts 163°
2026-05-05 10:19 41.89550 12.24076 1041 ft 122 kts 163°
2026-05-05 10:20 41.88733 12.24422 909 ft 123 kts 163°
2026-05-05 10:20 41.87914 12.24765 753 ft 124 kts 164°
2026-05-05 10:20 41.87093 12.25109 584 ft 122 kts 163°
2026-05-05 10:20 41.86273 12.25456 399 ft 124 kts 164°
2026-05-05 10:21 41.85448 12.25799 263 ft 123 kts 162°
2026-05-05 10:21 41.84629 12.26141 82 ft 123 kts 161°
2026-05-05 10:21 41.83854 12.26466 20 ft 106 kts 163°
2026-05-05 10:21 41.83286 12.26700 12 ft 61 kts 163°
2026-05-05 10:22 41.82940 12.26841 12 ft 48 kts 166°
2026-05-05 10:22 41.82618 12.26844 10 ft 46 kts 193°
2026-05-05 10:22 41.82380 12.26783 11 ft 24 kts 176°
2026-05-05 10:22 41.82222 12.26821 11 ft 19 kts 163°
2026-05-05 10:23 41.82093 12.26875 11 ft 20 kts 162°
2026-05-05 10:23 41.82006 12.26911 11 ft 0 kts 162°
2026-05-05 10:23 41.81978 12.26924 11 ft 11 kts 162°
2026-05-05 10:23 41.81885 12.26962 12 ft 15 kts 162°
2026-05-05 10:24 41.81785 12.27004 12 ft 16 kts 162°
2026-05-05 10:24 41.81676 12.27049 13 ft 17 kts 162°
2026-05-05 10:24 41.81564 12.27096 12 ft 17 kts 162°
2026-05-05 10:24 41.81447 12.27145 12 ft 18 kts 162°
2026-05-05 10:25 41.81326 12.27196 13 ft 18 kts 162°
2026-05-05 10:25 41.81203 12.27248 14 ft 19 kts 162°
2026-05-05 10:25 41.81077 12.27301 12 ft 19 kts 162°
2026-05-05 10:25 41.80949 12.27350 15 ft 19 kts 172°
2026-05-05 10:26 41.80814 12.27328 13 ft 20 kts 188°
2026-05-05 10:26 41.80682 12.27276 13 ft 20 kts 220°
2026-05-05 10:26 41.80624 12.27106 13 ft 21 kts 250°
2026-05-05 10:26 41.80572 12.26922 15 ft 21 kts 250°
2026-05-05 10:27 41.80521 12.26734 14 ft 21 kts 250°
2026-05-05 10:27 41.80469 12.26547 16 ft 22 kts 250°
2026-05-05 10:27 41.80403 12.26373 15 ft 21 kts 212°
2026-05-05 10:27 41.80263 12.26411 14 ft 20 kts 167°
2026-05-05 10:28 41.80144 12.26362 15 ft 18 kts 205°
2026-05-05 10:28 41.80027 12.26290 14 ft 19 kts 205°
2026-05-05 10:28 41.79907 12.26215 15 ft 19 kts 205°
2026-05-05 10:28 41.79781 12.26140 16 ft 20 kts 198°
2026-05-05 10:29 41.79651 12.26119 14 ft 19 kts 206°
2026-05-05 10:29 41.79565 12.26064 14 ft 3 kts 205°
2026-05-05 10:29 41.79548 12.26057 16 ft 2 kts 186°
2026-05-05 10:29 41.79530 12.26077 14 ft 4 kts 128°
2026-05-05 10:30 41.79517 12.26110 14 ft 3 kts 115°
2026-05-05 10:30 41.79511 12.26129 14 ft 0 kts 114°
2026-05-05 10:30 41.79510 12.26130 14 ft 0 kts 114°